owner,sensor,date,latitude,longitude,vertical_datum,sea_water_temperature,qcFlag
BP,ioos:station:wmo:42907:1,2022-11-01T00:04:00Z,27.1320,-90.3386,16.5,27.5,11111222
BP,ioos:station:wmo:42907:1,2022-11-01T00:14:00Z,27.1320,-90.3386,16.5,27.5,11111222
BP,ioos:station:wmo:42907:1,2022-11-01T00:24:00Z,27.1320,-90.3386,16.6,27.5,11111222
BP,ioos:station:wmo:42907:1,2022-11-01T00:34:00Z,27.1320,-90.3386,16.7,27.5,11111222
BP,ioos:station:wmo:42907:1,2022-11-01T00:44:00Z,27.1320,-90.3386,16.7,27.5,11111222
BP,ioos:station:wmo:42907:1,2022-11-01T00:54:00Z,27.1320,-90.3386,16.7,27.5,11111222
BP,ioos:station:wmo:42907:1,2022-11-01T01:04:00Z,27.1320,-90.3386,16.6,27.5,11111222
BP,ioos:station:wmo:42907:1,2022-11-01T01:14:00Z,27.1320,-90.3386,16.5,27.5,11111222
BP,ioos:station:wmo:42907:1,2022-11-01T01:24:00Z,27.1320,-90.3386,16.4,27.5,11111222
BP,ioos:station:wmo:42907:1,2022-11-01T01:34:00Z,27.1320,-90.3386,16.6,27.5,11111222
BP,ioos:station:wmo:42907:1,2022-11-01T01:44:00Z,27.1320,-90.3386,16.6,27.5,11111222
BP,ioos:station:wmo:42907:1,2022-11-01T01:54:00Z,27.1320,-90.3386,16.5,27.5,11111222
BP,ioos:station:wmo:42907:1,2022-11-01T02:04:00Z,27.1320,-90.3386,16.4,27.5,11111222
BP,ioos:station:wmo:42907:1,2022-11-01T02:14:00Z,27.1320,-90.3386,16.5,27.5,11111222
BP,ioos:station:wmo:42907:1,2022-11-01T02:24:00Z,27.1320,-90.3386,16.4,27.5,11111222
BP,ioos:station:wmo:42907:1,2022-11-01T02:34:00Z,27.1319,-90.3386,16.4,27.5,11111222
BP,ioos:station:wmo:42907:1,2022-11-01T02:44:00Z,27.1319,-90.3386,16.3,27.5,11111222
BP,ioos:station:wmo:42907:1,2022-11-01T02:54:00Z,27.1319,-90.3386,16.3,27.5,11111222
BP,ioos:station:wmo:42907:1,2022-11-01T03:04:00Z,27.1319,-90.3386,16.2,27.5,11111222
BP,ioos:station:wmo:42907:1,2022-11-01T03:14:00Z,27.1319,-90.3386,16.1,27.5,11111222
BP,ioos:station:wmo:42907:1,2022-11-01T03:24:00Z,27.1319,-90.3386,16.1,27.5,11111222
BP,ioos:station:wmo:42907:1,2022-11-01T03:34:00Z,27.1319,-90.3386,16.4,27.5,11111222
BP,ioos:station:wmo:42907:1,2022-11-01T03:44:00Z,27.1320,-90.3386,16.4,27.5,11111222
BP,ioos:station:wmo:42907:1,2022-11-01T03:54:00Z,27.1320,-90.3386,16.7,27.5,11111222
BP,ioos:station:wmo:42907:1,2022-11-01T04:04:00Z,27.1320,-90.3386,16.6,27.5,11111222
BP,ioos:station:wmo:42907:1,2022-11-01T04:14:00Z,27.1320,-90.3386,16.7,27.5,11111222
BP,ioos:station:wmo:42907:1,2022-11-01T04:24:00Z,27.1320,-90.3386,16.7,27.5,11111222
BP,ioos:station:wmo:42907:1,2022-11-01T04:34:00Z,27.1319,-90.3386,16.5,27.5,11111222
BP,ioos:station:wmo:42907:1,2022-11-01T04:45:00Z,27.1320,-90.3386,16.6,27.5,11111222
BP,ioos:station:wmo:42907:1,2022-11-01T04:55:00Z,27.1319,-90.3386,16.4,27.5,11111222
BP,ioos:station:wmo:42907:1,2022-11-01T05:05:00Z,27.1320,-90.3386,16.7,27.5,11111222
BP,ioos:station:wmo:42907:1,2022-11-01T05:15:00Z,27.1320,-90.3386,16.6,27.5,11111222
BP,ioos:station:wmo:42907:1,2022-11-01T05:25:00Z,27.1320,-90.3386,16.6,27.5,11111222
BP,ioos:station:wmo:42907:1,2022-11-01T05:35:00Z,27.1320,-90.3386,16.6,27.5,11111222
BP,ioos:station:wmo:42907:1,2022-11-01T05:45:00Z,27.1320,-90.3386,16.7,27.5,11111222
BP,ioos:station:wmo:42907:1,2022-11-01T05:55:00Z,27.1320,-90.3386,16.7,27.5,11111222
BP,ioos:station:wmo:42907:1,2022-11-01T06:05:00Z,27.1320,-90.3386,16.7,27.5,11111222
BP,ioos:station:wmo:42907:1,2022-11-01T06:15:00Z,27.1320,-90.3386,16.7,27.5,11111222
BP,ioos:station:wmo:42907:1,2022-11-01T06:25:00Z,27.1320,-90.3386,16.7,27.5,11111222
BP,ioos:station:wmo:42907:1,2022-11-01T06:35:00Z,27.1320,-90.3386,16.7,27.5,11111222
BP,ioos:station:wmo:42907:1,2022-11-01T06:45:00Z,27.1320,-90.3386,16.7,27.5,11111222
BP,ioos:station:wmo:42907:1,2022-11-01T06:55:00Z,27.1320,-90.3386,16.6,27.5,11111222
BP,ioos:station:wmo:42907:1,2022-11-01T07:05:00Z,27.1320,-90.3386,16.7,27.5,11111222
BP,ioos:station:wmo:42907:1,2022-11-01T07:15:00Z,27.1320,-90.3386,16.6,27.5,11111222
BP,ioos:station:wmo:42907:1,2022-11-01T07:25:00Z,27.1320,-90.3386,16.7,27.5,11111222
BP,ioos:station:wmo:42907:1,2022-11-01T07:35:00Z,27.1320,-90.3386,16.7,27.5,11111222
BP,ioos:station:wmo:42907:1,2022-11-01T07:45:00Z,27.1320,-90.3386,16.6,27.5,11111222
BP,ioos:station:wmo:42907:1,2022-11-01T07:55:00Z,27.1320,-90.3386,16.7,27.5,11111222
BP,ioos:station:wmo:42907:1,2022-11-01T08:05:00Z,27.1320,-90.3386,16.8,27.5,11111222
BP,ioos:station:wmo:42907:1,2022-11-01T08:15:00Z,27.1319,-90.3386,16.6,27.5,11111222
BP,ioos:station:wmo:42907:1,2022-11-01T08:25:00Z,27.1320,-90.3386,16.7,27.5,11111222
BP,ioos:station:wmo:42907:1,2022-11-01T08:35:00Z,27.1320,-90.3386,16.6,27.5,11111222
BP,ioos:station:wmo:42907:1,2022-11-01T08:45:00Z,27.1320,-90.3386,16.6,27.5,11111222
BP,ioos:station:wmo:42907:1,2022-11-01T08:55:00Z,27.1320,-90.3386,16.6,27.5,11111222
BP,ioos:station:wmo:42907:1,2022-11-01T09:05:00Z,27.1320,-90.3386,16.7,27.5,11111222
BP,ioos:station:wmo:42907:1,2022-11-01T09:15:00Z,27.1320,-90.3386,16.7,27.5,11111222
BP,ioos:station:wmo:42907:1,2022-11-01T09:25:00Z,27.1320,-90.3386,16.8,27.5,11111222
BP,ioos:station:wmo:42907:1,2022-11-01T09:35:00Z,27.1320,-90.3386,16.7,27.5,11111222
BP,ioos:station:wmo:42907:1,2022-11-01T09:45:00Z,27.1320,-90.3386,16.7,27.5,11111222
BP,ioos:station:wmo:42907:1,2022-11-01T09:55:00Z,27.1320,-90.3386,16.8,27.5,11111222
BP,ioos:station:wmo:42907:1,2022-11-01T10:05:00Z,27.1320,-90.3386,16.8,27.5,11111222
BP,ioos:station:wmo:42907:1,2022-11-01T10:15:00Z,27.1320,-90.3386,16.8,27.5,11111222
BP,ioos:station:wmo:42907:1,2022-11-01T10:25:00Z,27.1320,-90.3386,16.8,27.5,11111222
BP,ioos:station:wmo:42907:1,2022-11-01T10:35:00Z,27.1320,-90.3386,16.8,27.5,11111222
BP,ioos:station:wmo:42907:1,2022-11-01T10:45:00Z,27.1320,-90.3386,16.7,27.5,11111222
BP,ioos:station:wmo:42907:1,2022-11-01T10:55:00Z,27.1320,-90.3386,16.7,27.5,11111222
BP,ioos:station:wmo:42907:1,2022-11-01T11:05:00Z,27.1320,-90.3386,16.8,27.5,11111222
BP,ioos:station:wmo:42907:1,2022-11-01T11:15:00Z,27.1320,-90.3386,16.7,27.5,11111222
BP,ioos:station:wmo:42907:1,2022-11-01T11:25:00Z,27.1320,-90.3386,16.8,27.5,11111222
BP,ioos:station:wmo:42907:1,2022-11-01T11:35:00Z,27.1320,-90.3386,16.8,27.5,11111222
BP,ioos:station:wmo:42907:1,2022-11-01T11:45:00Z,27.1320,-90.3386,16.7,27.5,11111222
BP,ioos:station:wmo:42907:1,2022-11-01T11:55:00Z,27.1320,-90.3386,16.8,27.5,11111222
BP,ioos:station:wmo:42907:1,2022-11-01T12:06:00Z,27.1320,-90.3386,16.8,27.5,11111222
BP,ioos:station:wmo:42907:1,2022-11-01T12:16:00Z,27.1320,-90.3386,16.7,27.5,11111222
BP,ioos:station:wmo:42907:1,2022-11-01T12:26:00Z,27.1320,-90.3386,16.6,27.5,11111222
BP,ioos:station:wmo:42907:1,2022-11-01T12:36:00Z,27.1320,-90.3386,16.6,27.5,11111222
BP,ioos:station:wmo:42907:1,2022-11-01T12:46:00Z,27.1320,-90.3386,16.6,27.5,11111222
BP,ioos:station:wmo:42907:1,2022-11-01T12:56:00Z,27.1320,-90.3386,16.6,27.5,11111222
BP,ioos:station:wmo:42907:1,2022-11-01T13:06:00Z,27.1320,-90.3386,16.6,27.5,11111222
BP,ioos:station:wmo:42907:1,2022-11-01T13:16:00Z,27.1320,-90.3386,16.6,27.5,11111222
BP,ioos:station:wmo:42907:1,2022-11-01T13:26:00Z,27.1320,-90.3386,16.6,27.5,11111222
BP,ioos:station:wmo:42907:1,2022-11-01T13:36:00Z,27.1320,-90.3386,16.6,27.4,11111222
BP,ioos:station:wmo:42907:1,2022-11-01T13:46:00Z,27.1320,-90.3386,16.6,27.4,11111222
BP,ioos:station:wmo:42907:1,2022-11-01T13:56:00Z,27.1320,-90.3386,16.6,27.4,11111222
BP,ioos:station:wmo:42907:1,2022-11-01T14:06:00Z,27.1320,-90.3386,16.6,27.4,11111222
BP,ioos:station:wmo:42907:1,2022-11-01T14:16:00Z,27.1320,-90.3386,16.7,27.4,11111222
BP,ioos:station:wmo:42907:1,2022-11-01T14:26:00Z,27.1320,-90.3386,16.7,27.4,11111222
BP,ioos:station:wmo:42907:1,2022-11-01T14:36:00Z,27.1320,-90.3386,16.5,27.4,11111222
BP,ioos:station:wmo:42907:1,2022-11-01T14:46:00Z,27.1320,-90.3386,16.4,27.4,11111222
BP,ioos:station:wmo:42907:1,2022-11-01T14:56:00Z,27.1320,-90.3386,16.4,27.4,11111222
BP,ioos:station:wmo:42907:1,2022-11-01T15:06:00Z,27.1320,-90.3386,16.5,27.4,11111222
BP,ioos:station:wmo:42907:1,2022-11-01T15:16:00Z,27.1320,-90.3386,16.4,27.4,11111222
BP,ioos:station:wmo:42907:1,2022-11-01T15:26:00Z,27.1320,-90.3386,16.4,27.4,11111222
BP,ioos:station:wmo:42907:1,2022-11-01T15:36:00Z,27.1320,-90.3386,16.7,27.4,11111222
BP,ioos:station:wmo:42907:1,2022-11-01T15:46:00Z,27.1320,-90.3386,16.6,27.4,11111222
BP,ioos:station:wmo:42907:1,2022-11-01T15:56:00Z,27.1320,-90.3386,16.6,27.4,11111222
BP,ioos:station:wmo:42907:1,2022-11-01T16:06:00Z,27.1320,-90.3386,16.6,27.4,11111222
BP,ioos:station:wmo:42907:1,2022-11-01T16:16:00Z,27.1320,-90.3386,16.6,27.4,11111222
BP,ioos:station:wmo:42907:1,2022-11-01T16:26:00Z,27.1320,-90.3386,16.6,27.4,11111222
BP,ioos:station:wmo:42907:1,2022-11-01T16:36:00Z,27.1320,-90.3386,16.6,27.4,11111222
BP,ioos:station:wmo:42907:1,2022-11-01T16:46:00Z,27.1320,-90.3386,16.6,27.4,11111222
BP,ioos:station:wmo:42907:1,2022-11-01T16:56:00Z,27.1320,-90.3386,16.6,27.4,11111222
BP,ioos:station:wmo:42907:1,2022-11-01T17:06:00Z,27.1320,-90.3386,16.6,27.4,11111222
BP,ioos:station:wmo:42907:1,2022-11-01T17:16:00Z,27.1320,-90.3386,16.6,27.4,11111222
BP,ioos:station:wmo:42907:1,2022-11-01T17:26:00Z,27.1320,-90.3386,16.6,27.4,11111222
BP,ioos:station:wmo:42907:1,2022-11-01T17:36:00Z,27.1320,-90.3386,16.6,27.4,11111222
BP,ioos:station:wmo:42907:1,2022-11-01T17:46:00Z,27.1320,-90.3386,16.5,27.4,11111222
BP,ioos:station:wmo:42907:1,2022-11-01T17:56:00Z,27.1320,-90.3386,16.5,27.4,11111222
BP,ioos:station:wmo:42907:1,2022-11-01T18:06:00Z,27.1320,-90.3386,16.5,27.4,11111222
BP,ioos:station:wmo:42907:1,2022-11-01T18:16:00Z,27.1320,-90.3386,16.5,27.4,11111222
BP,ioos:station:wmo:42907:1,2022-11-01T18:26:00Z,27.1320,-90.3386,16.5,27.4,11111222
BP,ioos:station:wmo:42907:1,2022-11-01T18:36:00Z,27.1320,-90.3386,16.5,27.4,11111222
BP,ioos:station:wmo:42907:1,2022-11-01T18:46:00Z,27.1320,-90.3386,16.5,27.4,11111222
BP,ioos:station:wmo:42907:1,2022-11-01T18:56:00Z,27.1320,-90.3386,16.5,27.4,11111222
BP,ioos:station:wmo:42907:1,2022-11-01T19:06:00Z,27.1320,-90.3386,16.6,27.4,11111222
BP,ioos:station:wmo:42907:1,2022-11-01T19:17:00Z,27.1320,-90.3386,16.6,27.4,11111222
BP,ioos:station:wmo:42907:1,2022-11-01T19:27:00Z,27.1320,-90.3386,16.7,27.4,11111222
BP,ioos:station:wmo:42907:1,2022-11-01T19:37:00Z,27.1320,-90.3386,16.7,27.4,11111222
BP,ioos:station:wmo:42907:1,2022-11-01T19:47:00Z,27.1320,-90.3386,16.7,27.4,11111222
BP,ioos:station:wmo:42907:1,2022-11-01T19:57:00Z,27.1320,-90.3386,16.7,27.4,11111222
BP,ioos:station:wmo:42907:1,2022-11-01T20:07:00Z,27.1320,-90.3386,16.7,27.4,11111222
BP,ioos:station:wmo:42907:1,2022-11-01T20:17:00Z,27.1320,-90.3386,16.7,27.4,11111222
BP,ioos:station:wmo:42907:1,2022-11-01T20:27:00Z,27.1320,-90.3386,16.7,27.4,11111222
BP,ioos:station:wmo:42907:1,2022-11-01T20:37:00Z,27.1320,-90.3386,16.7,27.4,11111222
BP,ioos:station:wmo:42907:1,2022-11-01T20:47:00Z,27.1320,-90.3386,16.7,27.4,11111222
BP,ioos:station:wmo:42907:1,2022-11-01T20:57:00Z,27.1320,-90.3386,16.7,27.4,11111222
BP,ioos:station:wmo:42907:1,2022-11-01T21:07:00Z,27.1320,-90.3386,16.7,27.4,11111222
BP,ioos:station:wmo:42907:1,2022-11-01T21:17:00Z,27.1320,-90.3386,16.7,27.4,11111222
BP,ioos:station:wmo:42907:1,2022-11-01T21:27:00Z,27.1320,-90.3386,16.7,27.4,11111222
BP,ioos:station:wmo:42907:1,2022-11-01T21:37:00Z,27.1320,-90.3386,16.7,27.4,11111222
BP,ioos:station:wmo:42907:1,2022-11-01T21:47:00Z,27.1320,-90.3386,16.7,27.4,11111222
BP,ioos:station:wmo:42907:1,2022-11-01T21:57:00Z,27.1320,-90.3386,16.7,27.4,11111222
BP,ioos:station:wmo:42907:1,2022-11-01T22:07:00Z,27.1320,-90.3386,16.7,27.4,11111222
BP,ioos:station:wmo:42907:1,2022-11-01T22:17:00Z,27.1320,-90.3386,16.7,27.4,11111222
BP,ioos:station:wmo:42907:1,2022-11-01T22:27:00Z,27.1320,-90.3386,16.7,27.4,11111222
BP,ioos:station:wmo:42907:1,2022-11-01T22:37:00Z,27.1320,-90.3386,16.7,27.4,11111222
BP,ioos:station:wmo:42907:1,2022-11-01T22:47:00Z,27.1320,-90.3386,16.7,27.4,11111222
BP,ioos:station:wmo:42907:1,2022-11-01T22:57:00Z,27.1320,-90.3386,16.7,27.4,11111222
BP,ioos:station:wmo:42907:1,2022-11-01T23:07:00Z,27.1320,-90.3386,16.7,27.4,11111222
BP,ioos:station:wmo:42907:1,2022-11-01T23:17:00Z,27.1320,-90.3386,16.7,27.4,11111222
BP,ioos:station:wmo:42907:1,2022-11-01T23:27:00Z,27.1320,-90.3386,16.7,27.4,11111222
BP,ioos:station:wmo:42907:1,2022-11-01T23:37:00Z,27.1320,-90.3386,16.7,27.4,11111222
BP,ioos:station:wmo:42907:1,2022-11-01T23:47:00Z,27.1320,-90.3386,16.7,27.4,11111222
BP,ioos:station:wmo:42907:1,2022-11-01T23:57:00Z,27.1320,-90.3386,16.7,27.4,11111222
BP,ioos:station:wmo:42907:1,2022-11-02T00:07:00Z,27.1320,-90.3386,16.7,27.4,11111222
BP,ioos:station:wmo:42907:1,2022-11-02T00:17:00Z,27.1320,-90.3386,16.8,27.4,11111222
BP,ioos:station:wmo:42907:1,2022-11-02T00:27:00Z,27.1320,-90.3386,16.8,27.4,11111222
BP,ioos:station:wmo:42907:1,2022-11-02T00:37:00Z,27.1320,-90.3386,16.8,27.4,11111222
BP,ioos:station:wmo:42907:1,2022-11-02T00:47:00Z,27.1320,-90.3386,16.8,27.4,11111222
BP,ioos:station:wmo:42907:1,2022-11-02T00:57:00Z,27.1320,-90.3386,16.8,27.4,11111222
BP,ioos:station:wmo:42907:1,2022-11-02T01:07:00Z,27.1320,-90.3386,16.8,27.4,11111222
BP,ioos:station:wmo:42907:1,2022-11-02T01:17:00Z,27.1320,-90.3386,16.9,27.4,11111222
BP,ioos:station:wmo:42907:1,2022-11-02T01:27:00Z,27.1320,-90.3386,16.8,27.4,11111222
BP,ioos:station:wmo:42907:1,2022-11-02T01:37:00Z,27.1320,-90.3386,16.7,27.4,11111222
BP,ioos:station:wmo:42907:1,2022-11-02T01:47:00Z,27.1320,-90.3386,16.7,27.4,11111222
BP,ioos:station:wmo:42907:1,2022-11-02T01:57:00Z,27.1320,-90.3386,16.7,27.4,11111222
BP,ioos:station:wmo:42907:1,2022-11-02T02:07:00Z,27.1320,-90.3386,16.7,27.4,11111222
BP,ioos:station:wmo:42907:1,2022-11-02T02:17:00Z,27.1320,-90.3386,16.7,27.4,11111222
BP,ioos:station:wmo:42907:1,2022-11-02T02:27:00Z,27.1320,-90.3386,16.7,27.4,11111222
BP,ioos:station:wmo:42907:1,2022-11-02T02:38:00Z,27.1320,-90.3386,16.7,27.4,11111222
BP,ioos:station:wmo:42907:1,2022-11-02T02:48:00Z,27.1320,-90.3386,16.7,27.4,11111222
BP,ioos:station:wmo:42907:1,2022-11-02T02:58:00Z,27.1320,-90.3386,16.7,27.3,11111222
BP,ioos:station:wmo:42907:1,2022-11-02T03:08:00Z,27.1320,-90.3386,16.7,27.3,11111222
BP,ioos:station:wmo:42907:1,2022-11-02T03:18:00Z,27.1320,-90.3386,16.7,27.3,11111222
BP,ioos:station:wmo:42907:1,2022-11-02T03:28:00Z,27.1320,-90.3386,16.7,27.3,11111222
BP,ioos:station:wmo:42907:1,2022-11-02T03:38:00Z,27.1320,-90.3386,16.6,27.3,11111222
BP,ioos:station:wmo:42907:1,2022-11-02T03:48:00Z,27.1320,-90.3386,16.6,27.3,11111222
BP,ioos:station:wmo:42907:1,2022-11-02T03:58:00Z,27.1320,-90.3386,16.6,27.3,11111222
BP,ioos:station:wmo:42907:1,2022-11-02T04:08:00Z,27.1320,-90.3386,16.6,27.3,11111222
BP,ioos:station:wmo:42907:1,2022-11-02T04:18:00Z,27.1320,-90.3386,16.6,27.3,11111222
BP,ioos:station:wmo:42907:1,2022-11-02T04:28:00Z,27.1320,-90.3386,16.6,27.3,11111222
BP,ioos:station:wmo:42907:1,2022-11-02T04:38:00Z,27.1320,-90.3386,16.6,27.3,11111222
BP,ioos:station:wmo:42907:1,2022-11-02T04:48:00Z,27.1320,-90.3386,16.6,27.3,11111222
BP,ioos:station:wmo:42907:1,2022-11-02T04:58:00Z,27.1320,-90.3386,16.6,27.3,11111222
BP,ioos:station:wmo:42907:1,2022-11-02T05:08:00Z,27.1320,-90.3386,16.6,27.3,11111222
BP,ioos:station:wmo:42907:1,2022-11-02T05:18:00Z,27.1320,-90.3386,16.6,27.3,11111222
BP,ioos:station:wmo:42907:1,2022-11-02T05:28:00Z,27.1320,-90.3386,16.6,27.3,11111222
BP,ioos:station:wmo:42907:1,2022-11-02T05:38:00Z,27.1320,-90.3386,16.6,27.3,11111222
BP,ioos:station:wmo:42907:1,2022-11-02T05:48:00Z,27.1320,-90.3386,16.6,27.4,11111222
BP,ioos:station:wmo:42907:1,2022-11-02T05:58:00Z,27.1320,-90.3386,16.6,27.4,11111222
BP,ioos:station:wmo:42907:1,2022-11-02T06:08:00Z,27.1320,-90.3386,16.7,27.4,11111222
BP,ioos:station:wmo:42907:1,2022-11-02T06:18:00Z,27.1320,-90.3386,16.6,27.4,11111222
BP,ioos:station:wmo:42907:1,2022-11-02T06:28:00Z,27.1320,-90.3386,16.6,27.4,11111222
BP,ioos:station:wmo:42907:1,2022-11-02T06:38:00Z,27.1320,-90.3386,16.6,27.4,11111222
BP,ioos:station:wmo:42907:1,2022-11-02T06:48:00Z,27.1320,-90.3386,16.6,27.4,11111222
BP,ioos:station:wmo:42907:1,2022-11-02T06:58:00Z,27.1320,-90.3386,16.6,27.4,11111222
BP,ioos:station:wmo:42907:1,2022-11-02T07:08:00Z,27.1320,-90.3386,16.6,27.4,11111222
BP,ioos:station:wmo:42907:1,2022-11-02T07:18:00Z,27.1320,-90.3386,16.6,27.4,11111222
BP,ioos:station:wmo:42907:1,2022-11-02T07:28:00Z,27.1320,-90.3386,16.6,27.4,11111222
BP,ioos:station:wmo:42907:1,2022-11-02T07:38:00Z,27.1320,-90.3386,16.5,27.4,11111222
BP,ioos:station:wmo:42907:1,2022-11-02T07:48:00Z,27.1320,-90.3386,16.5,27.4,11111222
BP,ioos:station:wmo:42907:1,2022-11-02T07:58:00Z,27.1320,-90.3386,16.3,27.5,11111222
BP,ioos:station:wmo:42907:1,2022-11-02T08:08:00Z,27.1320,-90.3386,16.3,27.5,11111222
BP,ioos:station:wmo:42907:1,2022-11-02T08:18:00Z,27.1320,-90.3386,16.3,27.5,11111222
BP,ioos:station:wmo:42907:1,2022-11-02T08:28:00Z,27.1320,-90.3386,16.3,27.5,11111222
BP,ioos:station:wmo:42907:1,2022-11-02T08:38:00Z,27.1320,-90.3386,16.3,27.5,11111222
BP,ioos:station:wmo:42907:1,2022-11-02T08:48:00Z,27.1320,-90.3386,16.3,27.5,11111222
BP,ioos:station:wmo:42907:1,2022-11-02T08:58:00Z,27.1320,-90.3386,16.3,27.5,11111222
BP,ioos:station:wmo:42907:1,2022-11-02T09:08:00Z,27.1320,-90.3386,16.3,27.5,11111222
BP,ioos:station:wmo:42907:1,2022-11-02T09:18:00Z,27.1320,-90.3386,16.3,27.5,11111222
BP,ioos:station:wmo:42907:1,2022-11-02T09:28:00Z,27.1320,-90.3386,16.3,27.5,11111222
BP,ioos:station:wmo:42907:1,2022-11-02T09:38:00Z,27.1320,-90.3386,16.3,27.5,11111222
BP,ioos:station:wmo:42907:1,2022-11-02T09:49:00Z,27.1320,-90.3386,16.3,27.5,11111222
BP,ioos:station:wmo:42907:1,2022-11-02T09:59:00Z,27.1320,-90.3386,16.3,27.5,11111222
BP,ioos:station:wmo:42907:1,2022-11-02T10:09:00Z,27.1320,-90.3386,16.3,27.5,11111222
BP,ioos:station:wmo:42907:1,2022-11-02T10:19:00Z,27.1320,-90.3386,16.3,27.5,11111222
BP,ioos:station:wmo:42907:1,2022-11-02T10:29:00Z,27.1320,-90.3386,16.3,27.5,11111222
BP,ioos:station:wmo:42907:1,2022-11-02T10:39:00Z,27.1320,-90.3386,16.3,27.5,11111222
BP,ioos:station:wmo:42907:1,2022-11-02T10:49:00Z,27.1320,-90.3386,16.3,27.5,11111222
BP,ioos:station:wmo:42907:1,2022-11-02T10:59:00Z,27.1320,-90.3386,16.3,27.5,11111222
BP,ioos:station:wmo:42907:1,2022-11-02T11:09:00Z,27.1320,-90.3386,16.3,27.5,11111222
BP,ioos:station:wmo:42907:1,2022-11-02T11:19:00Z,27.1320,-90.3386,16.2,27.5,11111222
BP,ioos:station:wmo:42907:1,2022-11-02T11:29:00Z,27.1320,-90.3386,16.2,27.5,11111222
BP,ioos:station:wmo:42907:1,2022-11-02T11:39:00Z,27.1320,-90.3386,16.2,27.5,11111222
BP,ioos:station:wmo:42907:1,2022-11-02T11:49:00Z,27.1320,-90.3386,16.3,27.5,11111222
BP,ioos:station:wmo:42907:1,2022-11-02T11:59:00Z,27.1320,-90.3386,16.3,27.5,11111222
BP,ioos:station:wmo:42907:1,2022-11-02T12:09:00Z,27.1320,-90.3386,16.3,27.5,11111222
BP,ioos:station:wmo:42907:1,2022-11-02T12:19:00Z,27.1320,-90.3386,16.3,27.5,11111222
BP,ioos:station:wmo:42907:1,2022-11-02T12:29:00Z,27.1320,-90.3386,16.4,27.5,11111222
BP,ioos:station:wmo:42907:1,2022-11-02T12:39:00Z,27.1320,-90.3386,16.4,27.5,11111222
BP,ioos:station:wmo:42907:1,2022-11-02T12:49:00Z,27.1320,-90.3386,16.4,27.5,11111222
BP,ioos:station:wmo:42907:1,2022-11-02T12:59:00Z,27.1320,-90.3386,16.3,27.5,11111222
BP,ioos:station:wmo:42907:1,2022-11-02T13:09:00Z,27.1320,-90.3386,16.3,27.5,11111222
BP,ioos:station:wmo:42907:1,2022-11-02T13:19:00Z,27.1320,-90.3386,16.3,27.5,11111222
BP,ioos:station:wmo:42907:1,2022-11-02T13:29:00Z,27.1320,-90.3386,16.3,27.5,11111222
BP,ioos:station:wmo:42907:1,2022-11-02T13:39:00Z,27.1320,-90.3386,16.3,27.5,11111222
BP,ioos:station:wmo:42907:1,2022-11-02T13:49:00Z,27.1320,-90.3386,16.3,27.5,11111222
BP,ioos:station:wmo:42907:1,2022-11-02T13:59:00Z,27.1320,-90.3386,16.3,27.5,11111222
BP,ioos:station:wmo:42907:1,2022-11-02T14:09:00Z,27.1320,-90.3386,16.3,27.5,11111222
BP,ioos:station:wmo:42907:1,2022-11-02T14:19:00Z,27.1320,-90.3386,16.4,27.5,11111222
BP,ioos:station:wmo:42907:1,2022-11-02T14:29:00Z,27.1320,-90.3386,16.4,27.5,11111222
BP,ioos:station:wmo:42907:1,2022-11-02T14:39:00Z,27.1320,-90.3386,16.3,27.5,11111222
BP,ioos:station:wmo:42907:1,2022-11-02T14:49:00Z,27.1320,-90.3386,16.3,27.5,11111222
BP,ioos:station:wmo:42907:1,2022-11-02T14:59:00Z,27.1320,-90.3386,16.4,27.5,11111222
BP,ioos:station:wmo:42907:1,2022-11-02T15:09:00Z,27.1320,-90.3386,16.4,27.5,11111222
BP,ioos:station:wmo:42907:1,2022-11-02T15:19:00Z,27.1320,-90.3386,16.3,27.5,11111222
BP,ioos:station:wmo:42907:1,2022-11-02T15:29:00Z,27.1320,-90.3386,16.4,27.5,11111222
BP,ioos:station:wmo:42907:1,2022-11-02T15:39:00Z,27.1320,-90.3386,16.5,27.5,11111222
BP,ioos:station:wmo:42907:1,2022-11-02T15:49:00Z,27.1320,-90.3386,16.5,27.5,11111222
BP,ioos:station:wmo:42907:1,2022-11-02T15:59:00Z,27.1320,-90.3386,16.6,27.5,11111222
BP,ioos:station:wmo:42907:1,2022-11-02T16:09:00Z,27.1320,-90.3386,16.5,27.5,11111222
BP,ioos:station:wmo:42907:1,2022-11-02T16:19:00Z,27.1320,-90.3386,16.7,27.5,11111222
BP,ioos:station:wmo:42907:1,2022-11-02T16:29:00Z,27.1320,-90.3386,16.5,27.5,11111222
BP,ioos:station:wmo:42907:1,2022-11-02T16:39:00Z,27.1320,-90.3386,16.4,27.5,11111222
BP,ioos:station:wmo:42907:1,2022-11-02T16:49:00Z,27.1320,-90.3386,16.4,27.5,11111222
BP,ioos:station:wmo:42907:1,2022-11-02T16:59:00Z,27.1320,-90.3386,16.5,27.5,11111222
BP,ioos:station:wmo:42907:1,2022-11-02T17:10:00Z,27.1320,-90.3386,16.5,27.5,11111222
BP,ioos:station:wmo:42907:1,2022-11-02T17:20:00Z,27.1320,-90.3386,16.4,27.5,11111222
BP,ioos:station:wmo:42907:1,2022-11-02T17:30:00Z,27.1320,-90.3386,16.4,27.5,11111222
BP,ioos:station:wmo:42907:1,2022-11-02T17:40:00Z,27.1320,-90.3386,16.4,27.5,11111222
BP,ioos:station:wmo:42907:1,2022-11-02T17:50:00Z,27.1320,-90.3386,16.6,27.5,11111222
BP,ioos:station:wmo:42907:1,2022-11-02T18:00:00Z,27.1320,-90.3386,16.5,27.5,11111222
BP,ioos:station:wmo:42907:1,2022-11-02T18:10:00Z,27.1320,-90.3386,16.5,27.5,11111222
BP,ioos:station:wmo:42907:1,2022-11-02T18:20:00Z,27.1320,-90.3386,16.5,27.5,11111222
BP,ioos:station:wmo:42907:1,2022-11-02T18:30:00Z,27.1319,-90.3386,16.5,27.5,11111222
BP,ioos:station:wmo:42907:1,2022-11-02T18:40:00Z,27.1320,-90.3386,16.5,27.5,11111222
BP,ioos:station:wmo:42907:1,2022-11-02T18:50:00Z,27.1320,-90.3386,16.5,27.5,11111222
BP,ioos:station:wmo:42907:1,2022-11-02T19:00:00Z,27.1320,-90.3386,16.5,27.5,11111222
BP,ioos:station:wmo:42907:1,2022-11-02T19:10:00Z,27.1320,-90.3386,16.5,27.5,11111222
BP,ioos:station:wmo:42907:1,2022-11-02T19:20:00Z,27.1320,-90.3386,16.6,27.5,11111222
BP,ioos:station:wmo:42907:1,2022-11-02T19:30:00Z,27.1320,-90.3386,16.6,27.5,11111222
BP,ioos:station:wmo:42907:1,2022-11-02T19:40:00Z,27.1320,-90.3386,16.6,27.5,11111222
BP,ioos:station:wmo:42907:1,2022-11-02T19:50:00Z,27.1320,-90.3386,16.7,27.5,11111222
BP,ioos:station:wmo:42907:1,2022-11-02T20:00:00Z,27.1320,-90.3386,16.7,27.5,11111222
BP,ioos:station:wmo:42907:1,2022-11-02T20:10:00Z,27.1320,-90.3386,16.8,27.5,11111222
BP,ioos:station:wmo:42907:1,2022-11-02T20:20:00Z,27.1320,-90.3385,16.8,27.5,11111222
BP,ioos:station:wmo:42907:1,2022-11-02T20:30:00Z,27.1320,-90.3385,16.9,27.5,11111222
BP,ioos:station:wmo:42907:1,2022-11-02T20:40:00Z,27.1320,-90.3385,16.9,27.5,11111222
BP,ioos:station:wmo:42907:1,2022-11-02T20:50:00Z,27.1320,-90.3385,16.9,27.5,11111222
BP,ioos:station:wmo:42907:1,2022-11-02T21:00:00Z,27.1320,-90.3386,16.9,27.5,11111222
BP,ioos:station:wmo:42907:1,2022-11-02T21:10:00Z,27.1320,-90.3385,16.9,27.5,11111222
BP,ioos:station:wmo:42907:1,2022-11-02T21:20:00Z,27.1320,-90.3385,16.9,27.5,11111222
BP,ioos:station:wmo:42907:1,2022-11-02T21:30:00Z,27.1320,-90.3385,16.8,27.5,11111222
BP,ioos:station:wmo:42907:1,2022-11-02T21:40:00Z,27.1320,-90.3386,16.8,27.5,11111222
BP,ioos:station:wmo:42907:1,2022-11-02T21:50:00Z,27.1320,-90.3386,16.7,27.5,11111222
BP,ioos:station:wmo:42907:1,2022-11-02T22:00:00Z,27.1320,-90.3386,16.6,27.5,11111222
BP,ioos:station:wmo:42907:1,2022-11-02T22:10:00Z,27.1320,-90.3386,16.6,27.5,11111222
BP,ioos:station:wmo:42907:1,2022-11-02T22:20:00Z,27.1320,-90.3386,16.6,27.5,11111222